Wetterdaten: aktuell Samstag, 16.02.2019 16:29
Datum Zeit Temperatur Bodentemp. Luftfeuchte Luftdruck Regen Wind Richtung Richtung Sonnenschein
16.02.2019 16:29 14,8 C 4,4 C 5 % 1024 hPa 0,0 l/m 3,9 km/h (1 Bft) W22.5 260 0 min
16.02.2019 16:23 14,9 C 4,4 C 5 % 1024 hPa 0,0 l/m 6,7 km/h (2 Bft) W-SW 240 0 min
16.02.2019 16:19 14,9 C 4,5 C 5 % 1024 hPa 0,0 l/m 4,6 km/h (1 Bft) SW22.5 225 0 min
16.02.2019 16:14 15,1 C 4,7 C 5 % 1024 hPa 0,0 l/m 4,2 km/h (1 Bft) SW22.5 225 0 min
16.02.2019 16:09 15,4 C 4,7 C 5 % 1024 hPa 0,0 l/m 6,9 km/h (2 Bft) SW22.5 235 0 min
16.02.2019 16:03 15,5 C 5,2 C 5 % 1024 hPa 0,0 l/m 7,8 km/h (2 Bft) W-SW22.5 240 0 min
16.02.2019 15:59 15,6 C 5,5 C 5 % 1024 hPa 0,0 l/m 6,5 km/h (2 Bft) SW22.5 235 0 min
16.02.2019 15:54 15,7 C 6,0 C 5 % 1024 hPa 0,0 l/m 0,0 km/h (0 Bft) W45 260 0 min
16.02.2019 15:49 15,7 C 6,0 C 5 % 1024 hPa 0,0 l/m 3,6 km/h (1 Bft) W-NW22.5 300 0 min
16.02.2019 15:44 15,6 C 5,7 C 5 % 1024 hPa 0,0 l/m 6,4 km/h (2 Bft) W-NW45 295 0 min
16.02.2019 15:39 15,6 C 5,3 C 5 % 1024 hPa 0,0 l/m 3,9 km/h (1 Bft) W-SW22.5 255 0 min
16.02.2019 15:34 15,5 C 5,0 C 5 % 1024 hPa 0,0 l/m 0,0 km/h (0 Bft) W-SW22.5 245 0 min
16.02.2019 15:29 15,6 C 5,3 C 5 % 1024 hPa 0,0 l/m 4,5 km/h (1 Bft) SW22.5 225 0 min
16.02.2019 15:24 15,6 C 5,0 C 5 % 1024 hPa 0,0 l/m 0,0 km/h (0 Bft) SW22.5 215 0 min
16.02.2019 15:19 15,6 C 5,1 C 5 % 1024 hPa 0,0 l/m 0,0 km/h (0 Bft) S-SW 195 0 min
16.02.2019 15:14 15,6 C 5,4 C 5 % 1025 hPa 0,0 l/m 0,0 km/h (0 Bft) S-SW22.5 205 0 min
16.02.2019 15:08 15,7 C 5,9 C 5 % 1025 hPa 0,0 l/m 5,6 km/h (2 Bft) W-SW22.5 250 0 min
16.02.2019 15:04 15,7 C 6,3 C 5 % 1025 hPa 0,0 l/m 9,1 km/h (2 Bft) SW45 235 0 min
16.02.2019 14:59 15,7 C 6,5 C 5 % 1025 hPa 0,0 l/m 6,7 km/h (2 Bft) NW45 320 0 min
16.02.2019 14:54 15,7 C 6,5 C 5 % 1025 hPa 0,0 l/m 6,7 km/h (2 Bft) NW45 320 0 min
16.02.2019 14:49 15,9 C 6,5 C 5 % 1025 hPa 0,0 l/m 13,6 km/h (3 Bft) NW45 305 0 min
16.02.2019 14:44 15,9 C 6,3 C 5 % 1025 hPa 0,0 l/m 6,0 km/h (2 Bft) W-NW22.5 300 0 min
16.02.2019 14:39 15,9 C 6,0 C 5 % 1025 hPa 0,0 l/m 6,6 km/h (2 Bft) W-SW45 255 0 min
16.02.2019 14:34 15,9 C 6,5 C 5 % 1025 hPa 0,0 l/m 9,2 km/h (2 Bft) W-NW22.5 290 0 min
16.02.2019 14:29 15,8 C 6,5 C 5 % 1025 hPa 0,0 l/m 6,5 km/h (2 Bft) W-NW22.5 300 0 min
16.02.2019 14:24 15,7 C 6,6 C 5 % 1025 hPa 0,0 l/m 9,5 km/h (2 Bft) NW22.5 310 0 min
16.02.2019 14:19 15,7 C 6,8 C 5 % 1025 hPa 0,0 l/m 7,2 km/h (2 Bft) NW22.5 315 0 min
16.02.2019 14:13 15,5 C 6,6 C 5 % 1025 hPa 0,0 l/m 8,4 km/h (2 Bft) NW45 320 0 min
16.02.2019 14:09 15,5 C 6,7 C 5 % 1025 hPa 0,0 l/m 10,8 km/h (2 Bft) NW45 320 0 min
16.02.2019 14:04 15,6 C 6,7 C 5 % 1025 hPa 0,0 l/m 10,5 km/h (2 Bft) NW22.5 310 0 min
16.02.2019 13:59 15,5 C 6,7 C 5 % 1025 hPa 0,0 l/m 10,8 km/h (2 Bft) NW22.5 320 0 min
16.02.2019 13:53 15,5 C 6,5 C 5 % 1025 hPa 0,0 l/m 5,4 km/h (2 Bft) NW22.5 305 0 min
16.02.2019 13:49 15,5 C 6,3 C 5 % 1025 hPa 0,0 l/m 9,5 km/h (2 Bft) NW22.5 315 0 min
16.02.2019 13:44 15,4 C 6,4 C 5 % 1025 hPa 0,0 l/m 8,8 km/h (2 Bft) NW45 315 0 min
16.02.2019 13:39 15,4 C 6,1 C 5 % 1025 hPa 0,0 l/m 6,1 km/h (2 Bft) W-NW45 295 0 min
16.02.2019 13:34 15,5 C 6,2 C 5 % 1025 hPa 0,0 l/m 8,3 km/h (2 Bft) NW22.5 310 0 min
16.02.2019 13:29 15,6 C 6,1 C 5 % 1025 hPa 0,0 l/m 7,7 km/h (2 Bft) W45 275 0 min
16.02.2019 13:24 15,5 C 6,2 C 5 % 1025 hPa 0,0 l/m 10,8 km/h (2 Bft) W67.5 270 0 min
16.02.2019 13:18 15,5 C 6,2 C 5 % 1025 hPa 0,0 l/m 9,8 km/h (2 Bft) W45 260 0 min
16.02.2019 13:14 15,4 C 6,3 C 5 % 1025 hPa 0,0 l/m 13,1 km/h (3 Bft) NW45 305 0 min
16.02.2019 13:09 15,4 C 5,7 C 5 % 1026 hPa 0,0 l/m 7,3 km/h (2 Bft) NW67.5 305 0 min
16.02.2019 13:04 15,3 C 6,0 C 5 % 1025 hPa 0,0 l/m 13,6 km/h (3 Bft) W45 275 0 min
16.02.2019 12:59 15,2 C 5,7 C 5 % 1025 hPa 0,0 l/m 11,7 km/h (2 Bft) W45 275 0 min
16.02.2019 12:54 15,2 C 5,3 C 5 % 1026 hPa 0,0 l/m 14,3 km/h (3 Bft) W-SW22.5 255 0 min
16.02.2019 12:49 15,2 C 5,6 C 5 % 1026 hPa 0,0 l/m 14,1 km/h (3 Bft) W-SW22.5 245 0 min
16.02.2019 12:44 15,2 C 5,4 C 5 % 1026 hPa 0,0 l/m 8,6 km/h (2 Bft) W45 270 0 min
16.02.2019 12:39 15,0 C 5,5 C 5 % 1026 hPa 0,0 l/m 10,7 km/h (2 Bft) W22.5 280 0 min
16.02.2019 12:34 15,0 C 5,2 C 5 % 1026 hPa 0,0 l/m 15,5 km/h (3 Bft) W-SW45 240 0 min
16.02.2019 12:29 14,9 C 5,5 C 5 % 1026 hPa 0,0 l/m 14,0 km/h (3 Bft) W-SW67.5 240 0 min
_ Min-Zeit 07:24 07:24 11:19 15:19 - 03:39 - - -
Minimum _ -0,5 C -4,5 C 5 % 1024 hPa - 0,0 km/h (0 Bft) - - -
_ Max-Zeit 14:34 14:19 08:09 17:04 17:04 12:34 - - 09:04
Maximum _ 15,9 C 6,8 C 90 % 1032 hPa 0,0 l/m 15,5 km/h
W-SW (3 Bft)
- - 6 min
Durchschnitt _ 6,8 C 1,7 C 58 % 1028 hPa #0,0 l/m 9,2 km/h (2 Bft) W - #1:10 h